| time (UTC) | temp C | wind direction | speed KPH | gust KPH | rain 1hr cm | rain 24hr cm | rain mn cm | humidity % | barometer mb |
| 20260506135552 | 14 | 224 | 0.0 | 0.0 | 0.23 | 0.53 | 0.53 | 98 | 1007.5 |
| 20260506135049 | 14 | 240 | 0.0 | 0.0 | 0.23 | 0.53 | 0.53 | 98 | 1007.5 |
| 20260506134545 | 13 | 241 | 0.0 | 0.0 | 0.20 | 0.51 | 0.51 | 98 | 1007.5 |
| 20260506134041 | 13 | 240 | 0.0 | 0.0 | 0.18 | 0.48 | 0.48 | 98 | 1007.5 |
| 20260506133538 | 13 | 240 | 0.0 | 0.0 | 0.18 | 0.48 | 0.48 | 98 | 1007.5 |
| 20260506133035 | 13 | 240 | 0.0 | 0.0 | 0.15 | 0.46 | 0.46 | 98 | 1007.5 |
| 20260506132533 | 13 | 242 | 0.0 | 0.0 | 0.13 | 0.43 | 0.43 | 97 | 1008.5 |
| 20260506132030 | 13 | 242 | 0.0 | 0.0 | 0.08 | 0.38 | 0.38 | 97 | 1008.5 |
| 20260506131527 | 13 | 242 | 0.0 | 0.0 | 0.03 | 0.33 | 0.33 | 97 | 1008.5 |
| 20260506131023 | 13 | 241 | 0.0 | 0.0 | 0.30 | 0.30 | 0.30 | 96 | 1008.5 |
| 20260506130520 | 13 | 241 | 0.0 | 0.0 | 0.25 | 0.25 | 0.25 | 96 | 1008.5 |
| 20260506130018 | 14 | 241 | 0.0 | 0.0 | 0.23 | 0.23 | 0.23 | 95 | 1008.5 |
| 20260506125516 | 14 | 241 | 0.0 | 0.0 | 0.18 | 0.18 | 0.18 | 95 | 1008.5 |
| 20260506125013 | 14 | 241 | 0.0 | 0.0 | 0.15 | 0.15 | 0.15 | 94 | 1008.5 |
| 20260506124511 | 13 | 249 | 0.0 | 0.0 | 0.13 | 0.13 | 0.13 | 93 | 1008.5 |
| 20260506124009 | 13 | 242 | 0.0 | 0.0 | 0.10 | 0.10 | 0.10 | 93 | 1008.5 |
| 20260506123506 | 13 | 250 | 0.0 | 0.0 | 0.10 | 0.10 | 0.10 | 93 | 1008.5 |
| 20260506123004 | 13 | 332 | 0.0 | 0.0 | 0.08 | 0.08 | 0.08 | 94 | 1008.5 |
| 20260506122501 | 13 | 332 | 0.0 | 0.0 | 0.05 | 0.05 | 0.05 | 94 | 1008.5 |
| 20260506121959 | 13 | 332 | 0.0 | 0.0 | 0.03 | 0.03 | 0.03 | 94 | 1008.5 |
| 20260506121456 | 13 | 332 | 0.0 | 0.0 | 0.03 | 0.03 | 0.03 | 93 | 1008.5 |
| 20260506120952 | 13 | 332 | 0.0 | 0.0 | 0.00 | 0.00 | 0.00 | 92 | 1008.5 |
| 20260506120450 | 13 | 332 | 0.0 | 0.0 | 0.00 | 0.00 | 0.00 | 92 | 1008.5 |
| 20260506115947 | 13 | 332 | 0.0 | 0.0 | 0.00 | 0.00 | 0.00 | 92 | 1008.5 |
| 20260506115445 | 13 | 332 | 0.0 | 0.0 | 0.00 | 0.00 | 0.00 | 92 | 1008.5 |
| 20260506114943 | 14 | 332 | 0.0 | 0.0 | 0.00 | 0.00 | 0.00 | 91 | 1008.5 |
| 20260506114440 | 14 | 332 | 0.0 | 0.0 | 0.00 | 0.00 | 0.00 | 90 | 1008.5 |
| 20260506113939 | 14 | 332 | 0.0 | 0.0 | 0.00 | 0.00 | 0.00 | 87 | 1008.5 |
| 20260506113436 | 14 | 332 | 0.0 | 0.0 | 0.00 | 0.00 | 0.00 | 89 | 1007.5 |
| 20260506112932 | 14 | 332 | 0.0 | 0.0 | 0.00 | 0.00 | 0.00 | 87 | 1007.5 |
| 20260506112430 | 14 | 332 | 0.0 | 0.0 | 0.00 | 0.00 | 0.00 | 86 | 1007.5 |
| 20260506111927 | 14 | 332 | 0.0 | 0.0 | 0.00 | 0.00 | 0.00 | 87 | 1007.5 |
| 20260506111425 | 14 | 332 | 0.0 | 0.0 | 0.00 | 0.00 | 0.00 | 86 | 1007.5 |
| 20260506110922 | 14 | 332 | 0.0 | 0.0 | 0.00 | 0.00 | 0.00 | 86 | 1007.5 |
| 20260506110420 | 14 | 332 | 0.0 | 0.0 | 0.00 | 0.00 | 0.00 | 85 | 1007.5 |
| 20260506105916 | 14 | 332 | 0.0 | 0.0 | 0.00 | 0.00 | 0.00 | 85 | 1007.5 |
| 20260506105413 | 14 | 332 | 0.0 | 0.0 | 0.00 | 0.00 | 0.00 | 86 | 1007.5 |
| 20260506104910 | 14 | 332 | 0.0 | 0.0 | 0.00 | 0.00 | 0.00 | 82 | 1007.5 |
| 20260506104408 | 14 | 332 | 0.0 | 0.0 | 0.00 | 0.00 | 0.00 | 84 | 1007.5 |
| 20260506103906 | 14 | 332 | 0.0 | 0.0 | 0.00 | 0.00 | 0.00 | 83 | 1007.5 |
| 20260506103403 | 14 | 332 | 0.0 | 0.0 | 0.00 | 0.00 | 0.00 | 86 | 1007.5 |
| 20260506102900 | 14 | 332 | 0.0 | 0.0 | 0.00 | 0.00 | 0.00 | 85 | 1007.5 |
| 20260506102358 | 14 | 332 | 0.0 | 0.0 | 0.00 | 0.00 | 0.00 | 83 | 1007.5 |
| 20260506101855 | 14 | 10 | 0.0 | 0.0 | 0.00 | 0.00 | 0.00 | 81 | 1006.5 |
| 20260506101351 | 13 | 10 | 0.0 | 0.0 | 0.00 | 0.00 | 0.00 | 81 | 1006.5 |
| 20260506100849 | 13 | 10 | 0.0 | 0.0 | 0.00 | 0.00 | 0.00 | 84 | 1006.5 |
| 20260506100347 | 13 | 10 | 0.0 | 0.0 | 0.00 | 0.00 | 0.00 | 85 | 1007.5 |
| 20260506095845 | 13 | 10 | 0.0 | 0.0 | 0.00 | 0.00 | 0.00 | 86 | 1007.5 |
| 20260506095342 | 13 | 10 | 0.0 | 0.0 | 0.00 | 0.00 | 0.00 | 85 | 1007.5 |
| 20260506094839 | 13 | 10 | 0.0 | 0.0 | 0.00 | 0.00 | 0.00 | 84 | 1007.5 |
| 20260506094338 | 13 | 10 | 0.0 | 0.0 | 0.00 | 0.00 | 0.00 | 84 | 1007.5 |
| 20260506093835 | 13 | 10 | 0.0 | 0.0 | 0.00 | 0.00 | 0.00 | 85 | 1007.5 |
| 20260506093332 | 13 | 10 | 0.0 | 0.0 | 0.00 | 0.00 | 0.00 | 87 | 1007.5 |
| 20260506092830 | 13 | 10 | 0.0 | 0.0 | 0.00 | 0.00 | 0.00 | 87 | 1007.5 |
| 20260506092328 | 13 | 10 | 0.0 | 0.0 | 0.00 | 0.00 | 0.00 | 86 | 1007.5 |
| 20260506091824 | -17 | 0.0 | 0.0 | 0.00 | 0.00 | 0.00 | 1007.5 | ||
| 20260506091322 | 14 | 10 | 0.0 | 0.0 | 0.00 | 0.00 | 0.00 | 83 | 1007.5 |
| 20260506090819 | 14 | 10 | 0.0 | 0.0 | 0.00 | 0.00 | 0.00 | 83 | 1007.5 |
| 20260506090317 | 14 | 10 | 0.0 | 0.0 | 0.00 | 0.00 | 0.00 | 83 | 1007.5 |
| 20260506085813 | 13 | 10 | 0.0 | 0.0 | 0.00 | 0.00 | 0.00 | 84 | 1007.5 |
| 20260506085309 | 13 | 10 | 0.0 | 0.0 | 0.00 | 0.00 | 0.00 | 84 | 1007.5 |
| 20260506084806 | -17 | 0.0 | 0.0 | 0.00 | 0.00 | 0.00 | 1007.5 | ||
| 20260506084302 | 13 | 18 | 0.0 | 0.0 | 0.00 | 0.00 | 0.00 | 84 | 1007.5 |
| 20260506083759 | 13 | 18 | 0.0 | 0.0 | 0.00 | 0.00 | 0.00 | 84 | 1007.5 |
| 20260506083257 | 13 | 18 | 0.0 | 0.0 | 0.00 | 0.00 | 0.00 | 84 | 1007.5 |
| 20260506082754 | 14 | 18 | 0.0 | 0.0 | 0.00 | 0.00 | 0.00 | 85 | 1007.5 |
| 20260506082250 | -17 | 0.0 | 0.0 | 0.00 | 0.00 | 0.00 | 1007.5 | ||
| 20260506081747 | -17 | 0.0 | 0.0 | 0.00 | 0.00 | 0.00 | 1007.5 | ||
| 20260506081245 | 14 | 18 | 0.0 | 0.0 | 0.00 | 0.00 | 0.00 | 85 | 1007.5 |
| 20260506080743 | 14 | 18 | 0.0 | 0.0 | 0.00 | 0.00 | 0.00 | 85 | 1007.5 |
| 20260506080239 | 14 | 18 | 0.0 | 0.0 | 0.00 | 0.00 | 0.00 | 85 | 1007.5 |
| 20260506073223 | 14 | 316 | 0.0 | 0.0 | 0.00 | 0.00 | 0.00 | 75 | 1007.5 |
| 20260506072720 | 13 | 291 | 0.0 | 0.0 | 0.00 | 0.00 | 0.00 | 77 | 1007.5 |
| 20260506072218 | -17 | 0.0 | 0.0 | 0.00 | 0.00 | 0.00 | 1007.5 | ||
| 20260506071715 | -17 | 0.0 | 0.0 | 0.00 | 0.00 | 0.00 | 1007.5 | ||
| 20260506071213 | -17 | 0.0 | 0.0 | 0.00 | 0.00 | 0.00 | 1007.5 | ||
| 20260506070709 | -17 | 0.0 | 0.0 | 0.00 | 0.00 | 0.00 | 1007.5 | ||
| 20260506070207 | -17 | 0.0 | 0.0 | 0.00 | 0.00 | 0.00 | 1008.5 | ||
| 20260506062143 | -17 | 0.0 | 0.0 | 0.00 | 0.00 | 0.00 | 1008.5 | ||
| 20260506061639 | -17 | 0.0 | 0.0 | 0.00 | 0.00 | 0.00 | 1008.5 | ||
| 20260506061137 | -17 | 0.0 | 0.0 | 0.00 | 0.00 | 0.00 | 1008.5 | ||
| 20260506060635 | -17 | 0.0 | 0.0 | 0.00 | 0.00 | 0.00 | 1008.5 | ||
| 20260506060132 | -17 | 0.0 | 0.0 | 0.00 | 0.00 | 0.00 | 1008.5 | ||
| 20260506051104 | -17 | 0.0 | 0.0 | 0.00 | 0.00 | 0.00 | 1008.5 | ||
| 20260506050602 | -17 | 0.0 | 0.0 | 0.00 | 0.00 | 0.00 | 1008.5 | ||
| 20260506045052 | -17 | 0.0 | 0.0 | 0.00 | 0.00 | 0.00 | 1008.5 | ||
| 20260506044550 | -17 | 0.0 | 0.0 | 0.00 | 0.00 | 0.00 | 1008.5 | ||
| 20260506044046 | -17 | 0.0 | 0.0 | 0.00 | 0.00 | 0.00 | 1008.5 | ||
| 20260506043544 | 12 | 291 | 0.0 | 0.0 | 0.00 | 0.00 | 0.00 | 86 | 1008.5 |
| 20260506043042 | 12 | 291 | 0.0 | 0.0 | 0.00 | 0.00 | 0.00 | 86 | 1008.5 |
| 20260506042541 | 12 | 291 | 0.0 | 0.0 | 0.00 | 0.00 | 0.00 | 86 | 1008.5 |
| 20260506042038 | 12 | 291 | 0.0 | 0.0 | 0.00 | 0.00 | 0.00 | 86 | 1008.5 |
| 20260506041537 | 12 | 291 | 0.0 | 0.0 | 0.00 | 0.00 | 0.00 | 86 | 1008.5 |
| 20260506041033 | 12 | 291 | 0.0 | 0.0 | 0.00 | 0.00 | 0.00 | 87 | 1009.6 |
| 20260506040531 | 12 | 291 | 0.0 | 0.0 | 0.00 | 0.00 | 0.00 | 86 | 1009.6 |
| 20260506040027 | 12 | 291 | 0.0 | 0.0 | 0.00 | 0.00 | 0.00 | 86 | 1009.6 |
| 20260506035524 | 12 | 291 | 0.0 | 0.0 | 0.00 | 0.00 | 0.00 | 86 | 1008.5 |
| 20260506035021 | 12 | 291 | 0.0 | 0.0 | 0.00 | 0.00 | 0.00 | 86 | 1008.5 |
| 20260506034518 | 12 | 291 | 0.0 | 0.0 | 0.00 | 0.00 | 0.00 | 86 | 1008.5 |
| 20260506034015 | 12 | 291 | 0.0 | 0.0 | 0.00 | 0.00 | 0.00 | 86 | 1008.5 |
| 20260506033512 | 13 | 291 | 0.0 | 0.0 | 0.00 | 0.00 | 0.00 | 85 | 1008.5 |
| 20260506033009 | 13 | 291 | 0.0 | 0.0 | 0.00 | 0.00 | 0.00 | 85 | 1008.5 |
| 20260506032506 | 13 | 291 | 0.0 | 0.0 | 0.00 | 0.00 | 0.00 | 83 | 1008.5 |
| 20260506032003 | 13 | 291 | 0.0 | 0.0 | 0.00 | 0.00 | 0.00 | 82 | 1008.5 |
| 20260506031501 | 13 | 291 | 0.0 | 0.0 | 0.00 | 0.00 | 0.00 | 82 | 1008.5 |
| 20260506030958 | 13 | 291 | 0.0 | 0.0 | 0.00 | 0.00 | 0.00 | 82 | 1009.6 |
| 20260506030455 | 14 | 291 | 0.0 | 0.0 | 0.00 | 0.00 | 0.00 | 82 | 1009.6 |
| 20260506025952 | 14 | 291 | 0.0 | 0.0 | 0.00 | 0.00 | 0.00 | 81 | 1009.6 |
| 20260506025449 | 14 | 291 | 0.0 | 0.0 | 0.00 | 0.00 | 0.00 | 81 | 1008.5 |
| 20260506024946 | 14 | 291 | 0.0 | 0.0 | 0.00 | 0.00 | 0.00 | 81 | 1008.5 |
| 20260506024443 | 15 | 291 | 0.0 | 0.0 | 0.00 | 0.00 | 0.00 | 80 | 1008.5 |
| 20260506023938 | 15 | 291 | 0.0 | 0.0 | 0.00 | 0.00 | 0.00 | 79 | 1008.5 |
| 20260506023436 | 15 | 291 | 0.0 | 0.0 | 0.00 | 0.00 | 0.00 | 78 | 1008.5 |
| 20260506022932 | 15 | 291 | 0.0 | 0.0 | 0.00 | 0.00 | 0.00 | 77 | 1008.5 |
| 20260506022430 | 15 | 291 | 0.0 | 0.0 | 0.00 | 0.00 | 0.00 | 75 | 1008.5 |
| 20260506021928 | 16 | 291 | 0.0 | 0.0 | 0.00 | 0.00 | 0.00 | 75 | 1008.5 |
| 20260506021425 | 16 | 291 | 0.0 | 0.0 | 0.00 | 0.00 | 0.00 | 74 | 1008.5 |
| 20260506020921 | 16 | 291 | 0.0 | 0.0 | 0.00 | 0.00 | 0.00 | 73 | 1008.5 |
| 20260506020420 | 16 | 291 | 0.0 | 0.0 | 0.00 | 0.00 | 0.00 | 73 | 1008.5 |
| 20260506015916 | 16 | 291 | 0.0 | 0.0 | 0.00 | 0.00 | 0.00 | 74 | 1008.5 |
| 20260506015414 | 16 | 291 | 0.0 | 0.0 | 0.00 | 0.00 | 0.00 | 73 | 1009.6 |
| 20260506014910 | 16 | 291 | 0.0 | 0.0 | 0.00 | 0.00 | 0.00 | 73 | 1009.6 |
| 20260506014407 | 17 | 291 | 0.0 | 0.0 | 0.00 | 0.00 | 0.00 | 72 | 1009.6 |
| 20260506013904 | 17 | 291 | 0.0 | 0.0 | 0.00 | 0.00 | 0.00 | 69 | 1008.5 |
| 20260506013403 | 17 | 291 | 0.0 | 0.0 | 0.00 | 0.00 | 0.00 | 69 | 1008.5 |
| 20260506012858 | 17 | 291 | 0.0 | 0.0 | 0.00 | 0.00 | 0.00 | 68 | 1008.5 |
| 20260506012355 | 17 | 291 | 0.0 | 0.0 | 0.00 | 0.00 | 0.00 | 66 | 1008.5 |
| 20260506011852 | 17 | 291 | 0.0 | 0.0 | 0.00 | 0.00 | 0.00 | 66 | 1008.5 |
| 20260506011349 | 17 | 291 | 0.0 | 0.0 | 0.00 | 0.00 | 0.00 | 67 | 1008.5 |
| 20260506010846 | 18 | 291 | 0.0 | 0.0 | 0.00 | 0.00 | 0.00 | 66 | 1008.5 |
| 20260506010344 | 18 | 291 | 0.0 | 0.0 | 0.00 | 0.00 | 0.00 | 66 | 1008.5 |
| 20260506005841 | 18 | 291 | 0.0 | 0.0 | 0.00 | 0.00 | 0.00 | 63 | 1008.5 |
| 20260506005337 | 18 | 291 | 0.0 | 0.0 | 0.00 | 0.00 | 0.00 | 63 | 1008.5 |
| 20260506004833 | 18 | 291 | 0.0 | 0.0 | 0.00 | 0.00 | 0.00 | 63 | 1008.5 |
| 20260506004331 | 19 | 291 | 0.0 | 0.0 | 0.00 | 0.00 | 0.00 | 63 | 1008.5 |
| 20260506003827 | 19 | 291 | 0.0 | 0.0 | 0.00 | 0.00 | 0.00 | 62 | 1008.5 |
| 20260506003324 | 19 | 291 | 0.0 | 0.0 | 0.00 | 0.00 | 0.00 | 60 | 1008.5 |
| 20260506002820 | 20 | 291 | 0.0 | 0.0 | 0.00 | 0.00 | 0.00 | 60 | 1008.5 |
| 20260506002317 | 20 | 291 | 0.0 | 0.0 | 0.00 | 0.00 | 0.00 | 58 | 1008.5 |
| 20260506001812 | 20 | 292 | 0.0 | 0.0 | 0.00 | 0.00 | 0.00 | 58 | 1008.5 |
| 20260506001310 | 20 | 292 | 0.0 | 0.0 | 0.00 | 0.00 | 0.00 | 59 | 1008.5 |
| 20260506000806 | 21 | 292 | 0.0 | 0.0 | 0.00 | 0.00 | 0.00 | 57 | 1007.5 |
| 20260506000304 | 21 | 292 | 0.0 | 0.0 | 0.00 | 0.00 | 0.00 | 56 | 1007.5 |
| 20260505235801 | 21 | 292 | 0.0 | 0.0 | 0.00 | 0.00 | 0.00 | 54 | 1007.5 |
| 20260505235258 | 21 | 332 | 0.0 | 0.0 | 0.00 | 0.00 | 0.00 | 55 | 1007.5 |
| 20260505234755 | 21 | 334 | 0.0 | 0.0 | 0.00 | 0.00 | 0.00 | 54 | 1007.5 |
| 20260505234253 | 21 | 333 | 0.0 | 0.0 | 0.00 | 0.00 | 0.00 | 53 | 1007.5 |
| 20260505233749 | 22 | 333 | 0.0 | 0.0 | 0.00 | 0.00 | 0.00 | 53 | 1007.5 |
| 20260505233247 | 22 | 305 | 0.0 | 0.0 | 0.00 | 0.00 | 0.00 | 53 | 1007.5 |
| 20260505232744 | 22 | 19 | 0.0 | 0.0 | 0.00 | 0.00 | 0.00 | 53 | 1007.5 |
| 20260505232242 | 22 | 19 | 0.0 | 0.0 | 0.00 | 0.00 | 0.00 | 52 | 1007.5 |
| 20260505231738 | 22 | 18 | 0.0 | 0.0 | 0.00 | 0.00 | 0.00 | 52 | 1007.5 |
| 20260505231237 | 22 | 18 | 0.0 | 0.0 | 0.00 | 0.00 | 0.00 | 51 | 1007.5 |
| 20260505230735 | 22 | 18 | 0.0 | 0.0 | 0.00 | 0.00 | 0.00 | 50 | 1007.5 |
| 20260505230231 | 22 | 18 | 0.0 | 0.0 | 0.00 | 0.00 | 0.00 | 52 | 1007.5 |
| 20260505225728 | 22 | 246 | 0.0 | 0.0 | 0.00 | 0.00 | 0.00 | 49 | 1007.5 |
| 20260505225225 | 22 | 304 | 0.0 | 0.0 | 0.00 | 0.00 | 0.00 | 51 | 1007.5 |
| 20260505224720 | 23 | 248 | 0.0 | 0.0 | 0.00 | 0.00 | 0.00 | 51 | 1007.5 |
| 20260505224218 | 23 | 246 | 0.0 | 0.0 | 0.00 | 0.00 | 0.00 | 48 | 1007.5 |
| 20260505223716 | 23 | 244 | 0.0 | 0.0 | 0.00 | 0.00 | 0.00 | 48 | 1007.5 |
| 20260505223211 | 23 | 226 | 0.0 | 0.0 | 0.00 | 0.00 | 0.00 | 47 | 1007.5 |
| 20260505222708 | 23 | 237 | 0.0 | 0.0 | 0.00 | 0.00 | 0.00 | 48 | 1007.5 |
| 20260505222203 | 23 | 217 | 0.0 | 0.0 | 0.00 | 0.00 | 0.00 | 46 | 1007.5 |
| 20260505221701 | 23 | 246 | 0.0 | 0.0 | 0.00 | 0.00 | 0.00 | 46 | 1007.5 |
| 20260505221158 | 23 | 226 | 0.0 | 0.0 | 0.00 | 0.00 | 0.00 | 46 | 1007.5 |
| 20260505220655 | 23 | 223 | 0.0 | 0.0 | 0.00 | 0.00 | 0.00 | 48 | 1007.5 |
| 20260505220153 | 23 | 227 | 0.0 | 0.0 | 0.00 | 0.00 | 0.00 | 46 | 1007.5 |
| 20260505215650 | 23 | 234 | 0.0 | 0.0 | 0.00 | 0.00 | 0.00 | 48 | 1007.5 |
| 20260505215148 | 23 | 203 | 0.0 | 0.0 | 0.00 | 0.00 | 0.00 | 45 | 1006.5 |
| 20260505214646 | 23 | 244 | 0.0 | 0.0 | 0.00 | 0.00 | 0.00 | 46 | 1006.5 |
| 20260505214142 | 23 | 221 | 0.0 | 0.0 | 0.00 | 0.00 | 0.00 | 47 | 1006.5 |
| 20260505213640 | 24 | 242 | 0.0 | 0.0 | 0.00 | 0.00 | 0.00 | 46 | 1006.5 |
| 20260505213137 | 24 | 224 | 0.0 | 0.0 | 0.00 | 0.00 | 0.00 | 44 | 1007.5 |
| 20260505212632 | 23 | 250 | 0.0 | 0.0 | 0.00 | 0.00 | 0.00 | 45 | 1007.5 |
| 20260505212130 | 23 | 217 | 0.0 | 0.0 | 0.00 | 0.00 | 0.00 | 45 | 1007.5 |
| 20260505211627 | 23 | 225 | 0.0 | 0.0 | 0.00 | 0.00 | 0.00 | 46 | 1007.5 |
| 20260505211125 | 23 | 265 | 0.0 | 0.0 | 0.00 | 0.00 | 0.00 | 47 | 1007.5 |
| 20260505210621 | 23 | 239 | 0.0 | 0.0 | 0.00 | 0.00 | 0.00 | 47 | 1007.5 |
| 20260505210118 | 23 | 239 | 0.0 | 0.0 | 0.00 | 0.00 | 0.00 | 45 | 1006.5 |
| 20260505205615 | 24 | 226 | 14.5 | 20.9 | 0.00 | 0.00 | 0.00 | 43 | 1006.5 |
| 20260505205113 | 24 | 203 | 9.7 | 12.9 | 0.00 | 0.00 | 0.00 | 44 | 1006.5 |
| 20260505204610 | 24 | 221 | 3.2 | 8.0 | 0.00 | 0.00 | 0.00 | 44 | 1007.5 |
| 20260505204108 | 24 | 224 | 0.0 | 0.0 | 0.00 | 0.00 | 0.00 | 44 | 1007.5 |
| 20260505203604 | 24 | 224 | 0.0 | 0.0 | 0.00 | 0.00 | 0.00 | 45 | 1007.5 |
| 20260505203101 | 24 | 241 | 14.5 | 20.9 | 0.00 | 0.00 | 0.00 | 44 | 1006.5 |
| 20260505202557 | 24 | 248 | 3.2 | 9.7 | 0.00 | 0.00 | 0.00 | 43 | 1006.5 |
| 20260505202053 | 24 | 224 | 6.4 | 8.0 | 0.00 | 0.00 | 0.00 | 44 | 1006.5 |
| 20260505201550 | 24 | 184 | 16.1 | 20.9 | 0.00 | 0.00 | 0.00 | 43 | 1006.5 |
| 20260505201048 | 24 | 224 | 11.3 | 16.1 | 0.00 | 0.00 | 0.00 | 42 | 1006.5 |
| 20260505200545 | 24 | 250 | 16.1 | 20.9 | 0.00 | 0.00 | 0.00 | 43 | 1006.5 |
| 20260505200042 | 24 | 217 | 14.5 | 22.5 | 0.00 | 0.00 | 0.00 | 42 | 1007.5 |
| 20260505195538 | 25 | 223 | 14.5 | 20.9 | 0.00 | 0.00 | 0.00 | 42 | 1007.5 |
| 20260505195036 | 25 | 202 | 17.7 | 24.1 | 0.00 | 0.00 | 0.00 | 43 | 1007.5 |
| 20260505194533 | 25 | 236 | 11.3 | 20.9 | 0.00 | 0.00 | 0.00 | 42 | 1006.5 |
| 20260505194028 | 25 | 223 | 14.5 | 22.5 | 0.00 | 0.00 | 0.00 | 44 | 1006.5 |
| 20260505193525 | 25 | 239 | 24.1 | 27.4 | 0.00 | 0.00 | 0.00 | 44 | 1006.5 |
| 20260505193023 | 25 | 164 | 20.9 | 27.4 | 0.00 | 0.00 | 0.00 | 45 | 1007.5 |
| 20260505192521 | 25 | 226 | 11.3 | 11.3 | 0.00 | 0.00 | 0.00 | 47 | 1007.5 |
| 20260505192019 | 25 | 201 | 24.1 | 27.4 | 0.00 | 0.00 | 0.00 | 45 | 1007.5 |
| 20260505191516 | 25 | 202 | 3.2 | 8.0 | 0.00 | 0.00 | 0.00 | 46 | 1007.5 |
| 20260505191014 | 25 | 240 | 20.9 | 32.2 | 0.00 | 0.00 | 0.00 | 47 | 1007.5 |
| 20260505190509 | 25 | 225 | 20.9 | 24.1 | 0.00 | 0.00 | 0.00 | 47 | 1007.5 |
| 20260505190005 | 25 | 198 | 12.9 | 20.9 | 0.00 | 0.00 | 0.00 | 49 | 1007.5 |
| 20260505185502 | 25 | 201 | 14.5 | 17.7 | 0.00 | 0.00 | 0.00 | 48 | 1007.5 |
| 20260505184958 | 25 | 223 | 19.3 | 22.5 | 0.00 | 0.00 | 0.00 | 47 | 1007.5 |
| 20260505184455 | 25 | 203 | 30.6 | 48.3 | 0.00 | 0.00 | 0.00 | 46 | 1007.5 |
| 20260505183952 | 25 | 203 | 14.5 | 20.9 | 0.00 | 0.00 | 0.00 | 47 | 1007.5 |
| 20260505183449 | 25 | 227 | 24.1 | 27.4 | 0.00 | 0.00 | 0.00 | 47 | 1007.5 |
| 20260505182945 | 24 | 239 | 3.2 | 12.9 | 0.00 | 0.00 | 0.00 | 49 | 1007.5 |
| 20260505182442 | 24 | 236 | 17.7 | 24.1 | 0.00 | 0.00 | 0.00 | 49 | 1007.5 |
| 20260505181938 | 24 | 247 | 17.7 | 22.5 | 0.00 | 0.00 | 0.00 | 47 | 1007.5 |
| 20260505181436 | 24 | 201 | 14.5 | 16.1 | 0.00 | 0.00 | 0.00 | 50 | 1008.5 |
| 20260505180933 | 24 | 236 | 0.0 | 0.0 | 0.00 | 0.00 | 0.00 | 49 | 1008.5 |
| 20260505180429 | 25 | 223 | 11.3 | 20.9 | 0.00 | 0.00 | 0.00 | 47 | 1008.5 |
| 20260505175926 | 25 | 242 | 6.4 | 11.3 | 0.00 | 0.00 | 0.00 | 47 | 1008.5 |
| 20260505175422 | 25 | 202 | 9.7 | 12.9 | 0.00 | 0.00 | 0.00 | 47 | 1008.5 |
| 20260505174918 | 24 | 225 | 0.0 | 4.8 | 0.00 | 0.00 | 0.00 | 50 | 1008.5 |
| 20260505174416 | 24 | 200 | 0.0 | 0.0 | 0.00 | 0.00 | 0.00 | 50 | 1008.5 |
| 20260505173912 | 24 | 203 | 19.3 | 27.4 | 0.00 | 0.00 | 0.00 | 50 | 1008.5 |
| 20260505173408 | 24 | 223 | 9.7 | 11.3 | 0.00 | 0.00 | 0.00 | 53 | 1008.5 |
| 20260505172906 | 24 | 202 | 20.9 | 24.1 | 0.00 | 0.00 | 0.00 | 51 | 1008.5 |
| 20260505172404 | 24 | 247 | 20.9 | 25.7 | 0.00 | 0.00 | 0.00 | 50 | 1008.5 |
| 20260505171903 | 24 | 203 | 16.1 | 20.9 | 0.00 | 0.00 | 0.00 | 50 | 1008.5 |
| 20260505171400 | 24 | 225 | 12.9 | 17.7 | 0.00 | 0.00 | 0.00 | 50 | 1008.5 |
| 20260505170856 | 24 | 185 | 16.1 | 20.9 | 0.00 | 0.00 | 0.00 | 51 | 1008.5 |
| 20260505170354 | 24 | 224 | 12.9 | 12.9 | 0.00 | 0.00 | 0.00 | 51 | 1008.5 |
| 20260505165849 | 23 | 203 | 16.1 | 20.9 | 0.00 | 0.00 | 0.00 | 53 | 1008.5 |
| 20260505165344 | 24 | 222 | 16.1 | 17.7 | 0.00 | 0.00 | 0.00 | 53 | 1008.5 |
| 20260505164840 | 23 | 226 | 20.9 | 27.4 | 0.00 | 0.00 | 0.00 | 50 | 1008.5 |
| 20260505164337 | 23 | 201 | 14.5 | 17.7 | 0.00 | 0.00 | 0.00 | 51 | 1008.5 |
| 20260505163836 | 23 | 234 | 24.1 | 32.2 | 0.00 | 0.00 | 0.00 | 52 | 1008.5 |
| 20260505163334 | 23 | 225 | 11.3 | 11.3 | 0.00 | 0.00 | 0.00 | 52 | 1008.5 |
| 20260505162832 | 23 | 200 | 9.7 | 20.9 | 0.00 | 0.00 | 0.00 | 52 | 1009.6 |
| 20260505162328 | 23 | 224 | 16.1 | 20.9 | 0.00 | 0.00 | 0.00 | 55 | 1009.6 |
| 20260505161825 | 23 | 203 | 17.7 | 20.9 | 0.00 | 0.00 | 0.00 | 54 | 1009.6 |
| 20260505161322 | 23 | 226 | 14.5 | 16.1 | 0.00 | 0.00 | 0.00 | 53 | 1009.6 |
| 20260505160820 | 23 | 226 | 0.0 | 3.2 | 0.00 | 0.00 | 0.00 | 55 | 1009.6 |
| 20260505160318 | 23 | 248 | 11.3 | 17.7 | 0.00 | 0.00 | 0.00 | 58 | 1009.6 |
| 20260505153256 | 22 | 234 | 20.9 | 27.4 | 0.00 | 0.00 | 0.00 | 54 | 1009.6 |
| 20260505152753 | 22 | 234 | 20.9 | 27.4 | 0.00 | 0.00 | 0.00 | 53 | 1009.6 |
| 20260505152249 | 22 | 220 | 6.4 | 9.7 | 0.00 | 0.00 | 0.00 | 60 | 1009.6 |
| 20260505151744 | 22 | 198 | 8.0 | 20.9 | 0.00 | 0.00 | 0.00 | 54 | 1009.6 |
| 20260505151242 | 22 | 222 | 11.3 | 17.7 | 0.00 | 0.00 | 0.00 | 54 | 1009.6 |
| 20260505150738 | 22 | 237 | 20.9 | 24.1 | 0.00 | 0.00 | 0.00 | 55 | 1009.6 |
| 20260505150236 | 22 | 226 | 12.9 | 12.9 | 0.00 | 0.00 | 0.00 | 58 | 1009.6 |
| 20260505140200 | 21 | 218 | 0.0 | 0.0 | 0.00 | 0.00 | 0.00 | 59 | 1009.6 |